Time,TemperatureF,DewpointF,PressureIn,WindDirection,WindDirectionDegrees,WindSpeedMPH,WindSpeedGustMPH,Humidity,HourlyPrecipIn,Conditions,Clouds,dailyrainin,SolarRadiationWatts/m^2,SoftwareType,DateUTC
2013-04-23 00:00:00,34.1,31.8,29.93,North,0,20.0,31.0,91,0.02,,---,0.00,0.00,VWS V14.01,2013-04-23 05:00:00,
2013-04-23 00:04:00,34.1,31.8,29.93,North,6,19.0,30.0,91,0.02,,---,0.00,0.00,VWS V14.01,2013-04-23 05:04:00,
2013-04-23 00:09:00,34.1,31.8,29.93,North,0,28.0,31.0,91,0.02,,---,0.00,0.00,VWS V14.01,2013-04-23 05:09:00,
2013-04-23 00:10:00,34.1,31.8,29.93,NNE,14,17.0,31.0,91,0.02,,---,0.00,0.00,VWS V14.01,2013-04-23 05:10:00,
2013-04-23 00:14:00,34.1,31.8,29.93,North,11,15.0,26.0,91,0.02,,---,0.00,0.00,VWS V14.01,2013-04-23 05:14:00,
2013-04-23 00:15:00,34.1,31.8,29.93,NE,34,24.0,27.0,91,0.02,,---,0.00,0.00,VWS V14.01,2013-04-23 05:15:00,
2013-04-23 00:19:00,34.1,31.8,29.93,North,6,13.0,29.0,91,0.02,,---,0.00,0.00,VWS V14.01,2013-04-23 05:19:00,
2013-04-23 00:20:00,34.1,31.8,29.93,North,0,17.0,29.0,91,0.02,,---,0.00,0.00,VWS V14.01,2013-04-23 05:20:00,
2013-04-23 00:24:00,34.1,31.8,29.93,NNE,16,22.0,26.0,91,0.02,,---,0.00,0.00,VWS V14.01,2013-04-23 05:24:00,
2013-04-23 00:25:00,34.1,31.8,29.93,North,7,18.0,27.0,91,0.02,,---,0.00,0.00,VWS V14.01,2013-04-23 05:25:00,
2013-04-23 00:29:00,34.3,32.0,29.93,North,0,26.0,26.0,91,0.02,,---,0.00,0.00,VWS V14.01,2013-04-23 05:29:00,
2013-04-23 00:30:00,34.1,31.8,29.94,NNE,31,18.0,26.0,91,0.02,,---,0.00,0.00,VWS V14.01,2013-04-23 05:30:00,
2013-04-23 00:34:00,34.3,32.0,29.94,NNE,25,22.0,24.0,91,0.02,,---,0.00,0.00,VWS V14.01,2013-04-23 05:34:00,
2013-04-23 00:35:00,34.3,31.7,29.94,North,0,21.0,25.0,90,0.02,,---,0.00,0.00,VWS V14.01,2013-04-23 05:35:00,
2013-04-23 00:39:00,34.3,31.7,29.94,North,0,21.0,24.0,90,0.01,,---,0.00,0.00,VWS V14.01,2013-04-23 05:39:00,
2013-04-23 00:40:00,34.3,31.7,29.94,NNW,347,24.0,25.0,90,0.01,,---,0.00,0.00,VWS V14.01,2013-04-23 05:40:00,
2013-04-23 00:44:00,34.1,31.5,29.94,NNE,21,14.0,26.0,90,0.01,,---,0.00,0.00,VWS V14.01,2013-04-23 05:44:00,
2013-04-23 00:45:00,34.1,31.5,29.95,North,0,16.0,26.0,90,0.01,,---,0.00,0.00,VWS V14.01,2013-04-23 05:45:00,
2013-04-23 00:49:00,34.0,31.4,29.95,North,10,21.0,25.0,90,0.00,,---,0.00,0.00,VWS V14.01,2013-04-23 05:49:00,
2013-04-23 00:50:00,34.0,31.4,29.95,North,11,24.0,25.0,90,0.00,,---,0.00,0.00,VWS V14.01,2013-04-23 05:50:00,
2013-04-23 00:55:00,33.8,31.2,29.95,North,1,16.0,26.0,90,0.00,,---,0.00,0.00,VWS V14.01,2013-04-23 05:55:00,
2013-04-23 01:00:00,33.8,31.2,29.96,NNE,20,14.0,30.0,90,0.00,,---,0.00,0.00,VWS V14.01,2013-04-23 06:00:00,
2013-04-23 01:05:00,34.0,31.4,29.96,NNE,16,16.0,27.0,90,0.00,,---,0.00,0.00,VWS V14.01,2013-04-23 06:05:00,
2013-04-23 01:10:00,33.8,30.9,29.96,NE,34,19.0,28.0,89,0.00,,---,0.00,0.00,VWS V14.01,2013-04-23 06:10:00,
2013-04-23 01:15:00,34.0,31.1,30.01,North,0,19.0,22.0,89,0.00,,---,0.00,0.00,VWS V14.01,2013-04-23 06:15:00,
2013-04-23 01:20:00,33.8,30.9,30.01,North,3,14.0,27.0,89,0.01,,---,0.01,0.00,VWS V14.01,2013-04-23 06:20:00,
2013-04-23 01:25:00,33.7,30.8,30.01,North,0,20.0,27.0,89,0.02,,---,0.02,0.00,VWS V14.01,2013-04-23 06:25:00,
2013-04-23 01:30:00,33.4,30.5,29.96,NE,37,22.0,28.0,89,0.04,,---,0.04,0.00,VWS V14.01,2013-04-23 06:30:00,
2013-04-23 01:35:00,33.2,30.6,29.96,North,0,17.0,25.0,90,0.05,,---,0.05,0.00,VWS V14.01,2013-04-23 06:35:00,
2013-04-23 01:40:00,33.1,30.8,29.96,North,4,11.0,29.0,91,0.05,,---,0.05,0.00,VWS V14.01,2013-04-23 06:40:00,
2013-04-23 01:45:00,33.1,30.8,29.98,North,7,22.0,29.0,91,0.06,,---,0.06,0.00,VWS V14.01,2013-04-23 06:45:00,
2013-04-23 01:50:00,33.1,30.8,29.98,North,0,20.0,27.0,91,0.06,,---,0.06,0.00,VWS V14.01,2013-04-23 06:50:00,
2013-04-23 01:55:00,32.9,30.8,29.98,North,10,17.0,24.0,92,0.06,,---,0.06,0.00,VWS V14.01,2013-04-23 06:55:00,
2013-04-23 02:00:00,32.9,30.8,29.96,North,11,17.0,22.0,92,0.06,,---,0.06,0.00,VWS V14.01,2013-04-23 07:00:00,
2013-04-23 02:05:00,32.9,30.8,29.96,North,0,22.0,25.0,92,0.06,,---,0.06,0.00,VWS V14.01,2013-04-23 07:05:00,
2013-04-23 02:10:00,32.9,30.8,29.96,North,0,10.0,24.0,92,0.06,,---,0.06,0.00,VWS V14.01,2013-04-23 07:10:00,
2013-04-23 02:15:00,32.9,30.8,30.01,North,1,22.0,22.0,92,0.07,,---,0.07,0.00,VWS V14.01,2013-04-23 07:15:00,
2013-04-23 02:20:00,32.9,31.1,30.01,North,356,24.0,24.0,93,0.07,,---,0.07,0.00,VWS V14.01,2013-04-23 07:20:00,
2013-04-23 02:21:00,32.8,31.0,30.01,North,0,24.0,24.0,93,0.06,,---,0.07,0.00,VWS V14.01,2013-04-23 07:21:00,
2013-04-23 02:25:00,32.8,31.0,30.01,NNW,344,22.0,26.0,93,0.06,,---,0.07,0.00,VWS V14.01,2013-04-23 07:25:00,
2013-04-23 02:26:00,32.8,31.0,30.01,NNW,347,21.0,22.0,93,0.05,,---,0.07,0.00,VWS V14.01,2013-04-23 07:26:00,
2013-04-23 02:30:00,32.8,31.0,30.00,North,0,22.0,29.0,93,0.05,,---,0.07,0.00,VWS V14.01,2013-04-23 07:30:00,
2013-04-23 02:31:00,32.8,31.0,30.00,North,0,25.0,25.0,93,0.03,,---,0.07,0.00,VWS V14.01,2013-04-23 07:31:00,
2013-04-23 02:35:00,32.7,30.9,30.00,North,353,12.0,25.0,93,0.03,,---,0.07,0.00,VWS V14.01,2013-04-23 07:35:00,
2013-04-23 02:36:00,32.7,30.9,30.00,North,0,16.0,16.0,93,0.02,,---,0.07,0.00,VWS V14.01,2013-04-23 07:36:00,
2013-04-23 02:40:00,32.7,30.9,30.00,NNW,346,12.0,25.0,93,0.02,,---,0.07,0.00,VWS V14.01,2013-04-23 07:40:00,
2013-04-23 02:41:00,32.7,30.9,30.00,North,0,21.0,21.0,93,0.02,,---,0.07,0.00,VWS V14.01,2013-04-23 07:41:00,
2013-04-23 02:45:00,32.7,30.9,29.98,NNE,16,10.0,22.0,93,0.02,,---,0.07,0.00,VWS V14.01,2013-04-23 07:45:00,
2013-04-23 02:46:00,32.7,30.9,29.98,North,8,19.0,26.0,93,0.01,,---,0.07,0.00,VWS V14.01,2013-04-23 07:46:00,
2013-04-23 02:50:00,32.5,30.7,29.98,North,356,22.0,28.0,93,0.01,,---,0.07,0.00,VWS V14.01,2013-04-23 07:50:00,
2013-04-23 02:51:00,32.5,30.7,29.98,North,8,26.0,31.0,93,0.01,,---,0.07,0.00,VWS V14.01,2013-04-23 07:51:00,
2013-04-23 02:55:00,32.5,30.4,29.98,NNE,18,16.0,32.0,92,0.01,,---,0.07,0.00,VWS V14.01,2013-04-23 07:55:00,
2013-04-23 02:56:00,32.5,30.4,29.98,NNW,346,25.0,26.0,92,0.01,,---,0.07,0.00,VWS V14.01,2013-04-23 07:56:00,
2013-04-23 03:00:00,32.5,30.4,29.98,North,0,16.0,27.0,92,0.01,,---,0.07,0.00,VWS V14.01,2013-04-23 08:00:00,
2013-04-23 03:01:00,32.5,30.4,29.98,North,0,14.0,17.0,92,0.01,,---,0.07,0.00,VWS V14.01,2013-04-23 08:01:00,
2013-04-23 03:05:00,32.5,30.4,29.98,NNW,343,20.0,28.0,92,0.01,,---,0.07,0.00,VWS V14.01,2013-04-23 08:05:00,
2013-04-23 03:06:00,32.5,30.4,29.98,North,6,18.0,20.0,92,0.01,,---,0.07,0.00,VWS V14.01,2013-04-23 08:06:00,
2013-04-23 03:10:00,32.5,30.4,29.98,North,11,20.0,27.0,92,0.01,,---,0.07,0.00,VWS V14.01,2013-04-23 08:10:00,
2013-04-23 03:11:00,32.4,30.3,29.98,NNE,18,24.0,25.0,92,0.01,,---,0.07,0.00,VWS V14.01,2013-04-23 08:11:00,
2013-04-23 03:15:00,32.4,30.3,29.95,NNE,32,19.0,29.0,92,0.01,,---,0.07,0.00,VWS V14.01,2013-04-23 08:15:00,
2013-04-23 03:16:00,32.4,30.3,29.95,North,10,15.0,21.0,92,0.00,,---,0.07,0.00,VWS V14.01,2013-04-23 08:16:00,
2013-04-23 03:20:00,32.2,30.1,29.95,North,0,18.0,27.0,92,0.00,,---,0.07,0.00,VWS V14.01,2013-04-23 08:20:00,
2013-04-23 03:21:00,32.2,29.9,29.95,North,10,17.0,22.0,91,0.00,,---,0.07,0.00,VWS V14.01,2013-04-23 08:21:00,
2013-04-23 03:25:00,32.2,30.1,29.95,North,10,18.0,25.0,92,0.00,,---,0.07,0.00,VWS V14.01,2013-04-23 08:25:00,
2013-04-23 03:26:00,32.2,30.1,29.95,NNE,14,21.0,21.0,92,0.00,,---,0.07,0.00,VWS V14.01,2013-04-23 08:26:00,
2013-04-23 03:30:00,32.2,30.1,29.97,North,1,19.0,26.0,92,0.01,,---,0.08,0.00,VWS V14.01,2013-04-23 08:30:00,
2013-04-23 03:32:00,32.1,30.0,29.97,North,0,19.0,20.0,92,0.01,,---,0.08,0.00,VWS V14.01,2013-04-23 08:32:00,
2013-04-23 03:35:00,32.1,30.0,29.97,North,11,15.0,21.0,92,0.01,,---,0.08,0.00,VWS V14.01,2013-04-23 08:35:00,
2013-04-23 03:37:00,32.1,30.0,29.97,North,0,19.0,24.0,92,0.01,,---,0.08,0.00,VWS V14.01,2013-04-23 08:37:00,
2013-04-23 03:40:00,32.1,30.0,29.97,North,1,22.0,24.0,92,0.01,,---,0.08,0.00,VWS V14.01,2013-04-23 08:40:00,
2013-04-23 03:42:00,32.1,30.0,29.97,North,6,18.0,22.0,92,0.01,,---,0.08,0.00,VWS V14.01,2013-04-23 08:42:00,
2013-04-23 03:45:00,31.9,29.8,29.95,NNE,30,13.0,25.0,92,0.01,,---,0.08,0.00,VWS V14.01,2013-04-23 08:45:00,
2013-04-23 03:47:00,31.9,29.8,29.95,NNE,18,18.0,22.0,92,0.01,,---,0.08,0.00,VWS V14.01,2013-04-23 08:47:00,
2013-04-23 03:50:00,31.9,29.8,29.95,North,6,20.0,29.0,92,0.01,,---,0.08,0.00,VWS V14.01,2013-04-23 08:50:00,
2013-04-23 03:52:00,31.9,29.8,29.95,SSW,199,19.0,27.0,92,0.01,,---,0.08,0.00,VWS V14.01,2013-04-23 08:52:00,
2013-04-23 03:55:00,31.8,29.8,29.95,NNE,24,21.0,28.0,92,0.01,,---,0.08,0.00,VWS V14.01,2013-04-23 08:55:00,
2013-04-23 03:57:00,31.8,29.8,29.95,NE,38,17.0,24.0,92,0.01,,---,0.08,0.00,VWS V14.01,2013-04-23 08:57:00,
2013-04-23 04:00:00,31.8,29.8,29.95,NNE,20,15.0,27.0,92,0.01,,---,0.08,0.00,VWS V14.01,2013-04-23 09:00:00,
2013-04-23 04:02:00,31.8,29.8,29.95,North,0,20.0,20.0,92,0.01,,---,0.08,0.00,VWS V14.01,2013-04-23 09:02:00,
2013-04-23 04:05:00,31.6,29.5,29.95,North,0,17.0,26.0,92,0.01,,---,0.08,0.00,VWS V14.01,2013-04-23 09:05:00,
2013-04-23 04:07:00,31.6,29.5,29.95,NNE,18,19.0,20.0,92,0.01,,---,0.08,0.00,VWS V14.01,2013-04-23 09:07:00,
2013-04-23 04:10:00,31.6,29.5,29.95,North,6,14.0,21.0,92,0.01,,---,0.08,0.00,VWS V14.01,2013-04-23 09:10:00,
2013-04-23 04:12:00,31.5,29.5,29.95,NNE,17,13.0,22.0,92,0.01,,---,0.08,0.00,VWS V14.01,2013-04-23 09:12:00,
2013-04-23 04:15:00,31.5,29.5,29.94,North,359,17.0,24.0,92,0.01,,---,0.08,0.00,VWS V14.01,2013-04-23 09:15:00,
2013-04-23 04:17:00,31.3,29.2,29.94,NNE,20,16.0,27.0,92,0.01,,---,0.08,0.00,VWS V14.01,2013-04-23 09:17:00,
2013-04-23 04:20:00,31.3,29.2,29.94,North,8,21.0,27.0,92,0.01,,---,0.08,0.00,VWS V14.01,2013-04-23 09:20:00,
2013-04-23 04:22:00,31.3,29.2,29.94,North,356,16.0,26.0,92,0.01,,---,0.08,0.00,VWS V14.01,2013-04-23 09:22:00,
2013-04-23 04:25:00,31.5,29.5,29.94,North,7,17.0,26.0,92,0.01,,---,0.08,0.00,VWS V14.01,2013-04-23 09:25:00,
2013-04-23 04:27:00,31.5,29.5,29.94,NNE,21,18.0,26.0,92,0.01,,---,0.08,0.00,VWS V14.01,2013-04-23 09:27:00,
2013-04-23 04:30:00,31.5,29.5,29.96,NNE,23,14.0,26.0,92,0.01,,---,0.08,0.00,VWS V14.01,2013-04-23 09:30:00,
2013-04-23 04:32:00,31.5,29.5,29.96,ENE,58,12.0,21.0,92,0.00,,---,0.08,0.00,VWS V14.01,2013-04-23 09:32:00,
2013-04-23 04:35:00,31.5,29.5,29.96,NNW,344,16.0,24.0,92,0.00,,---,0.08,0.00,VWS V14.01,2013-04-23 09:35:00,
2013-04-23 04:37:00,31.5,29.5,29.96,North,11,21.0,27.0,92,0.00,,---,0.08,0.00,VWS V14.01,2013-04-23 09:37:00,
2013-04-23 04:40:00,31.3,29.2,29.96,NNE,14,21.0,27.0,92,0.00,,---,0.08,0.00,VWS V14.01,2013-04-23 09:40:00,
2013-04-23 04:42:00,31.3,29.2,29.96,NNE,20,18.0,25.0,92,0.00,,---,0.08,0.00,VWS V14.01,2013-04-23 09:42:00,
2013-04-23 04:45:00,31.3,29.2,29.95,NNE,21,21.0,25.0,92,0.00,,---,0.08,0.00,VWS V14.01,2013-04-23 09:45:00,
2013-04-23 04:47:00,31.3,29.5,29.95,North,1,17.0,24.0,93,0.00,,---,0.08,0.00,VWS V14.01,2013-04-23 09:47:00,
2013-04-23 04:50:00,31.3,29.5,29.95,NNE,17,12.0,25.0,93,0.00,,---,0.08,0.00,VWS V14.01,2013-04-23 09:50:00,
2013-04-23 04:53:00,31.3,29.5,29.95,NNE,32,22.0,28.0,93,0.00,,---,0.08,0.00,VWS V14.01,2013-04-23 09:53:00,
2013-04-23 04:55:00,31.2,29.4,29.95,NNE,14,18.0,30.0,93,0.00,,---,0.08,0.00,VWS V14.01,2013-04-23 09:55:00,
2013-04-23 04:58:00,31.0,29.2,29.95,NNE,20,19.0,29.0,93,0.00,,---,0.08,0.00,VWS V14.01,2013-04-23 09:58:00,
2013-04-23 05:00:00,31.0,29.2,29.94,NNE,27,18.0,29.0,93,0.00,,---,0.08,0.00,VWS V14.01,2013-04-23 10:00:00,
2013-04-23 05:03:00,31.0,29.2,29.94,North,0,19.0,26.0,93,0.00,,---,0.08,0.00,VWS V14.01,2013-04-23 10:03:00,
2013-04-23 05:05:00,31.0,29.2,29.94,North,0,16.0,26.0,93,0.00,,---,0.08,0.00,VWS V14.01,2013-04-23 10:05:00,
2013-04-23 05:08:00,31.2,29.4,29.94,NW,322,10.0,16.0,93,0.00,,---,0.08,0.00,VWS V14.01,2013-04-23 10:08:00,
2013-04-23 05:10:00,31.2,29.4,29.94,North,0,8.0,16.0,93,0.00,,---,0.08,0.00,VWS V14.01,2013-04-23 10:10:00,
2013-04-23 05:13:00,31.0,29.2,29.94,NNW,347,13.0,17.0,93,0.00,,---,0.08,0.00,VWS V14.01,2013-04-23 10:13:00,
2013-04-23 05:15:00,31.0,29.2,29.99,North,353,18.0,20.0,93,0.00,,---,0.08,0.00,VWS V14.01,2013-04-23 10:15:00,
2013-04-23 05:18:00,31.0,29.2,29.99,North,354,20.0,20.0,93,0.00,,---,0.08,0.00,VWS V14.01,2013-04-23 10:18:00,
2013-04-23 05:20:00,30.9,29.1,29.99,NNE,28,14.0,21.0,93,0.00,,---,0.08,0.00,VWS V14.01,2013-04-23 10:20:00,
2013-04-23 05:23:00,30.7,28.9,29.99,NNE,18,20.0,26.0,93,0.00,,---,0.08,0.00,VWS V14.01,2013-04-23 10:23:00,
2013-04-23 05:25:00,30.6,28.8,29.99,NNE,27,12.0,26.0,93,0.00,,---,0.08,0.00,VWS V14.01,2013-04-23 10:25:00,
2013-04-23 05:28:00,30.4,28.9,29.99,North,10,14.0,27.0,94,0.00,,---,0.08,0.00,VWS V14.01,2013-04-23 10:28:00,
2013-04-23 05:30:00,30.4,28.9,29.96,North,359,18.0,27.0,94,0.00,,---,0.08,0.00,VWS V14.01,2013-04-23 10:30:00,
2013-04-23 05:33:00,30.4,28.9,29.96,NNE,27,15.0,19.0,94,0.00,,---,0.08,0.00,VWS V14.01,2013-04-23 10:33:00,
2013-04-23 05:35:00,30.3,28.8,29.96,NNE,21,21.0,24.0,94,0.00,,---,0.08,0.00,VWS V14.01,2013-04-23 10:35:00,
2013-04-23 05:38:00,30.3,29.0,29.96,NNE,20,16.0,22.0,95,0.00,,---,0.08,0.00,VWS V14.01,2013-04-23 10:38:00,
2013-04-23 05:40:00,30.3,29.0,29.96,North,7,18.0,22.0,95,0.00,,---,0.08,0.00,VWS V14.01,2013-04-23 10:40:00,
2013-04-23 05:43:00,30.3,29.0,29.96,North,6,12.0,21.0,95,0.00,,---,0.08,0.00,VWS V14.01,2013-04-23 10:43:00,
2013-04-23 05:45:00,30.1,28.8,29.96,North,3,13.0,21.0,95,0.00,,---,0.08,0.00,VWS V14.01,2013-04-23 10:45:00,
2013-04-23 05:48:00,30.1,29.1,29.96,North,11,20.0,22.0,96,0.00,,---,0.08,0.00,VWS V14.01,2013-04-23 10:48:00,
2013-04-23 05:50:00,30.1,29.1,29.96,North,4,10.0,22.0,96,0.00,,---,0.08,0.00,VWS V14.01,2013-04-23 10:50:00,
2013-04-23 05:53:00,30.1,29.1,29.96,North,8,16.0,20.0,96,0.00,,---,0.08,0.00,VWS V14.01,2013-04-23 10:53:00,
2013-04-23 05:55:00,30.0,29.0,29.96,North,11,13.0,21.0,96,0.00,,---,0.08,0.00,VWS V14.01,2013-04-23 10:55:00,
2013-04-23 05:58:00,30.0,29.0,29.96,North,6,17.0,25.0,96,0.00,,---,0.08,0.00,VWS V14.01,2013-04-23 10:58:00,
2013-04-23 06:00:00,30.0,29.0,29.96,North,6,18.0,25.0,96,0.00,,---,0.08,0.00,VWS V14.01,2013-04-23 11:00:00,
2013-04-23 06:03:00,30.0,29.0,29.96,NNE,28,12.0,19.0,96,0.00,,---,0.08,0.00,VWS V14.01,2013-04-23 11:03:00,
2013-04-23 06:05:00,30.0,29.0,29.96,NNE,14,17.0,22.0,96,0.00,,---,0.08,0.00,VWS V14.01,2013-04-23 11:05:00,
2013-04-23 06:09:00,30.0,29.0,29.96,NNE,16,21.0,24.0,96,0.00,,---,0.08,0.00,VWS V14.01,2013-04-23 11:09:00,
2013-04-23 06:10:00,30.0,29.0,29.96,North,4,18.0,24.0,96,0.00,,---,0.08,0.00,VWS V14.01,2013-04-23 11:10:00,
2013-04-23 06:14:00,30.0,29.2,29.96,North,1,12.0,20.0,97,0.00,,---,0.08,0.00,VWS V14.01,2013-04-23 11:14:00,
2013-04-23 06:15:00,30.0,29.2,29.98,North,359,13.0,20.0,97,0.00,,---,0.08,0.00,VWS V14.01,2013-04-23 11:15:00,
2013-04-23 06:19:00,30.0,29.2,29.98,North,11,19.0,22.0,97,0.00,,---,0.08,0.00,VWS V14.01,2013-04-23 11:19:00,
2013-04-23 06:20:00,30.0,29.2,29.98,NNE,17,18.0,22.0,97,0.00,,---,0.08,0.00,VWS V14.01,2013-04-23 11:20:00,
2013-04-23 06:24:00,30.0,29.5,29.98,NNE,30,17.0,20.0,98,0.00,,---,0.08,0.00,VWS V14.01,2013-04-23 11:24:00,
2013-04-23 06:25:00,29.8,29.3,29.98,NE,48,17.0,20.0,98,0.00,,---,0.08,0.00,VWS V14.01,2013-04-23 11:25:00,
2013-04-23 06:29:00,29.8,29.3,29.98,North,359,13.0,21.0,98,0.00,,---,0.08,0.00,VWS V14.01,2013-04-23 11:29:00,
2013-04-23 06:30:00,29.8,29.3,30.01,North,350,14.0,21.0,98,0.00,,---,0.08,0.00,VWS V14.01,2013-04-23 11:30:00,
2013-04-23 06:34:00,29.8,29.3,30.01,NW,316,17.0,19.0,98,0.00,,---,0.08,0.00,VWS V14.01,2013-04-23 11:34:00,
2013-04-23 06:35:00,30.0,29.5,30.01,NNW,340,18.0,19.0,98,0.00,,---,0.08,0.00,VWS V14.01,2013-04-23 11:35:00,
2013-04-23 06:39:00,30.0,29.5,30.01,North,0,10.0,22.0,98,0.00,,---,0.08,0.00,VWS V14.01,2013-04-23 11:39:00,
2013-04-23 06:40:00,30.0,29.8,30.01,North,359,11.0,22.0,99,0.00,,---,0.08,0.00,VWS V14.01,2013-04-23 11:40:00,
2013-04-23 06:44:00,30.0,29.8,30.01,NNW,344,10.0,18.0,99,0.00,,---,0.08,0.00,VWS V14.01,2013-04-23 11:44:00,
2013-04-23 06:45:00,30.0,29.8,30.04,NNW,344,18.0,20.0,99,0.00,,---,0.08,0.00,VWS V14.01,2013-04-23 11:45:00,
2013-04-23 06:49:00,30.0,29.8,30.04,NNW,339,13.0,18.0,99,0.00,,---,0.08,0.00,VWS V14.01,2013-04-23 11:49:00,
2013-04-23 06:50:00,30.0,29.8,30.04,North,0,15.0,19.0,99,0.00,,---,0.08,0.00,VWS V14.01,2013-04-23 11:50:00,
2013-04-23 06:54:00,30.0,29.8,30.04,North,3,24.0,26.0,99,0.00,,---,0.08,0.00,VWS V14.01,2013-04-23 11:54:00,
2013-04-23 06:55:00,30.0,29.8,30.04,North,0,19.0,26.0,99,0.00,,---,0.08,0.00,VWS V14.01,2013-04-23 11:55:00,
2013-04-23 06:59:00,30.0,29.8,30.04,NNW,342,10.0,21.0,99,0.00,,---,0.08,0.00,VWS V14.01,2013-04-23 11:59:00,
2013-04-23 07:00:00,29.8,29.5,30.00,NNE,23,17.0,21.0,99,0.00,,---,0.08,0.00,VWS V14.01,2013-04-23 12:00:00,
2013-04-23 07:05:00,29.8,29.5,30.00,North,0,14.0,20.0,99,0.00,,---,0.08,0.00,VWS V14.01,2013-04-23 12:05:00,
2013-04-23 07:10:00,29.8,29.5,30.00,North,1,14.0,22.0,99,0.00,,---,0.08,0.00,VWS V14.01,2013-04-23 12:10:00,
2013-04-23 07:15:00,29.8,29.5,30.00,North,0,10.0,18.0,99,0.00,,---,0.08,9.00,VWS V14.01,2013-04-23 12:15:00,
2013-04-23 07:20:00,29.8,29.5,30.00,NNW,336,13.0,18.0,99,0.00,,---,0.08,7.00,VWS V14.01,2013-04-23 12:20:00,
2013-04-23 07:25:00,29.8,29.5,30.00,NNW,340,19.0,22.0,99,0.00,,---,0.08,7.00,VWS V14.01,2013-04-23 12:25:00,
2013-04-23 07:30:00,29.7,29.5,30.02,North,6,19.0,27.0,99,0.00,,---,0.08,16.00,VWS V14.01,2013-04-23 12:30:00,
2013-04-23 07:35:00,29.5,29.2,30.02,North,11,17.0,24.0,99,0.00,,---,0.08,14.00,VWS V14.01,2013-04-23 12:35:00,
2013-04-23 07:40:00,29.5,29.5,30.02,North,10,12.0,24.0,100,0.00,,---,0.08,19.00,VWS V14.01,2013-04-23 12:40:00,
2013-04-23 07:45:00,29.5,29.5,30.02,North,1,18.0,25.0,100,0.00,,---,0.08,28.00,VWS V14.01,2013-04-23 12:45:00,
2013-04-23 07:50:00,29.5,29.5,30.02,North,0,15.0,21.0,100,0.00,,---,0.08,35.00,VWS V14.01,2013-04-23 12:50:00,
2013-04-23 07:55:00,29.5,29.5,30.02,North,352,13.0,18.0,100,0.00,,---,0.08,46.00,VWS V14.01,2013-04-23 12:55:00,
2013-04-23 08:00:00,29.7,29.7,30.02,North,3,17.0,24.0,100,0.00,,---,0.08,40.00,VWS V14.01,2013-04-23 13:00:00,
2013-04-23 08:05:00,29.7,29.7,30.02,North,4,22.0,25.0,100,0.00,,---,0.08,55.00,VWS V14.01,2013-04-23 13:05:00,
2013-04-23 08:10:00,29.7,29.7,30.02,North,10,18.0,22.0,100,0.00,,---,0.08,69.00,VWS V14.01,2013-04-23 13:10:00,
2013-04-23 08:15:00,29.7,29.7,30.03,NNE,16,11.0,18.0,100,0.00,,---,0.08,69.00,VWS V14.01,2013-04-23 13:15:00,
2013-04-23 08:16:00,29.7,29.7,30.03,North,0,12.0,12.0,100,0.00,,---,0.08,69.00,VWS V14.01,2013-04-23 13:16:00,
2013-04-23 08:20:00,29.7,29.7,30.03,North,10,17.0,19.0,100,0.00,,---,0.08,72.00,VWS V14.01,2013-04-23 13:20:00,
2013-04-23 08:21:00,29.7,29.7,30.03,NNE,18,10.0,17.0,100,0.00,,---,0.08,72.00,VWS V14.01,2013-04-23 13:21:00,
2013-04-23 08:25:00,29.8,29.8,30.03,North,352,13.0,17.0,100,0.00,,---,0.08,95.00,VWS V14.01,2013-04-23 13:25:00,
2013-04-23 08:26:00,29.8,29.8,30.03,North,11,14.0,16.0,100,0.00,,---,0.08,95.00,VWS V14.01,2013-04-23 13:26:00,
2013-04-23 08:30:00,29.7,29.7,30.01,North,11,20.0,24.0,100,0.00,,---,0.08,113.00,VWS V14.01,2013-04-23 13:30:00,
2013-04-23 08:31:00,29.7,29.7,30.01,North,357,17.0,22.0,100,0.00,,---,0.08,113.00,VWS V14.01,2013-04-23 13:31:00,
2013-04-23 08:35:00,29.7,29.7,30.01,North,11,27.0,27.0,100,0.00,,---,0.08,111.00,VWS V14.01,2013-04-23 13:35:00,
2013-04-23 08:36:00,29.5,29.5,30.01,NNE,16,18.0,27.0,100,0.00,,---,0.08,111.00,VWS V14.01,2013-04-23 13:36:00,
2013-04-23 08:40:00,29.5,29.5,30.01,NNW,344,18.0,27.0,100,0.00,,---,0.08,102.00,VWS V14.01,2013-04-23 13:40:00,
2013-04-23 08:41:00,29.5,29.5,30.01,North,7,21.0,27.0,100,0.00,,---,0.08,102.00,VWS V14.01,2013-04-23 13:41:00,
2013-04-23 08:45:00,29.5,29.5,30.02,North,3,19.0,27.0,100,0.00,,---,0.08,100.00,VWS V14.01,2013-04-23 13:45:00,
2013-04-23 08:46:00,29.5,29.5,30.02,NNE,21,12.0,20.0,100,0.00,,---,0.08,100.00,VWS V14.01,2013-04-23 13:46:00,
2013-04-23 08:50:00,29.5,29.5,30.02,North,4,30.0,30.0,100,0.00,,---,0.08,97.00,VWS V14.01,2013-04-23 13:50:00,
2013-04-23 08:51:00,29.5,29.5,30.02,NNE,23,20.0,30.0,100,0.00,,---,0.08,95.00,VWS V14.01,2013-04-23 13:51:00,
2013-04-23 08:55:00,29.4,29.4,30.02,NNE,18,17.0,30.0,100,0.00,,---,0.08,95.00,VWS V14.01,2013-04-23 13:55:00,
2013-04-23 08:56:00,29.4,29.4,30.02,North,359,20.0,24.0,100,0.00,,---,0.08,99.00,VWS V14.01,2013-04-23 13:56:00,
2013-04-23 09:00:00,29.5,29.5,30.03,North,7,17.0,26.0,100,0.00,,---,0.08,111.00,VWS V14.01,2013-04-23 14:00:00,
2013-04-23 09:01:00,29.5,29.5,30.03,North,7,12.0,18.0,100,0.00,,---,0.08,109.00,VWS V14.01,2013-04-23 14:01:00,
2013-04-23 09:05:00,29.5,29.5,30.03,NNW,340,12.0,22.0,100,0.00,,---,0.08,107.00,VWS V14.01,2013-04-23 14:05:00,
2013-04-23 09:06:00,29.5,29.2,30.03,NE,44,19.0,19.0,99,0.00,,---,0.08,106.00,VWS V14.01,2013-04-23 14:06:00,
2013-04-23 09:10:00,29.5,29.2,30.03,North,3,17.0,21.0,99,0.00,,---,0.08,107.00,VWS V14.01,2013-04-23 14:10:00,
2013-04-23 09:11:00,29.5,29.5,30.03,North,0,18.0,22.0,100,0.00,,---,0.08,106.00,VWS V14.01,2013-04-23 14:11:00,
2013-04-23 09:15:00,29.7,29.5,30.04,North,359,14.0,22.0,99,0.00,,---,0.08,113.00,VWS V14.01,2013-04-23 14:15:00,
2013-04-23 09:16:00,29.7,29.7,30.04,North,359,12.0,16.0,100,0.00,,---,0.08,113.00,VWS V14.01,2013-04-23 14:16:00,
2013-04-23 09:20:00,29.8,29.8,30.04,North,1,13.0,17.0,100,0.00,,---,0.08,121.00,VWS V14.01,2013-04-23 14:20:00,
2013-04-23 09:22:00,29.8,29.8,30.04,North,8,13.0,17.0,100,0.00,,---,0.08,116.00,VWS V14.01,2013-04-23 14:22:00,
2013-04-23 09:25:00,29.8,29.8,30.04,North,4,5.0,17.0,100,0.00,,---,0.08,99.00,VWS V14.01,2013-04-23 14:25:00,
2013-04-23 09:27:00,29.8,29.8,30.04,North,350,15.0,16.0,100,0.00,,---,0.08,99.00,VWS V14.01,2013-04-23 14:27:00,
2013-04-23 09:30:00,30.0,30.0,30.05,NNE,32,12.0,16.0,100,0.00,,---,0.08,99.00,VWS V14.01,2013-04-23 14:30:00,
2013-04-23 09:32:00,30.0,30.0,30.05,North,0,9.0,14.0,100,0.00,,---,0.08,99.00,VWS V14.01,2013-04-23 14:32:00,
2013-04-23 09:35:00,30.0,30.0,30.05,North,1,16.0,16.0,100,0.00,,---,0.08,100.00,VWS V14.01,2013-04-23 14:35:00,
2013-04-23 09:37:00,30.0,30.0,30.05,NNW,343,14.0,16.0,100,0.00,,---,0.08,123.00,VWS V14.01,2013-04-23 14:37:00,
2013-04-23 09:40:00,30.0,30.0,30.05,North,11,13.0,18.0,100,0.00,,---,0.08,125.00,VWS V14.01,2013-04-23 14:40:00,
2013-04-23 09:42:00,30.0,30.0,30.05,NNW,328,19.0,22.0,100,0.00,,---,0.08,127.00,VWS V14.01,2013-04-23 14:42:00,
2013-04-23 09:45:00,30.0,30.0,30.05,North,357,14.0,22.0,100,0.00,,---,0.08,102.00,VWS V14.01,2013-04-23 14:45:00,
2013-04-23 09:47:00,30.0,30.0,30.05,North,0,10.0,14.0,100,0.00,,---,0.08,111.00,VWS V14.01,2013-04-23 14:47:00,
2013-04-23 09:50:00,30.0,30.0,30.05,North,359,8.0,21.0,100,0.00,,---,0.08,125.00,VWS V14.01,2013-04-23 14:50:00,
2013-04-23 09:52:00,30.0,30.0,30.05,NNW,336,6.0,18.0,100,0.00,,---,0.08,135.00,VWS V14.01,2013-04-23 14:52:00,
2013-04-23 09:55:00,30.0,30.0,30.05,North,0,16.0,19.0,100,0.00,,---,0.08,139.00,VWS V14.01,2013-04-23 14:55:00,
2013-04-23 09:57:00,30.0,30.0,30.05,North,0,15.0,19.0,100,0.00,,---,0.08,146.00,VWS V14.01,2013-04-23 14:57:00,
2013-04-23 10:00:00,29.8,29.8,30.05,North,0,18.0,25.0,100,0.00,,---,0.08,164.00,VWS V14.01,2013-04-23 15:00:00,
2013-04-23 10:02:00,29.8,29.8,30.05,North,354,13.0,21.0,100,0.00,,---,0.08,164.00,VWS V14.01,2013-04-23 15:02:00,
2013-04-23 10:05:00,29.7,29.7,30.05,North,0,18.0,25.0,100,0.00,,---,0.08,165.00,VWS V14.01,2013-04-23 15:05:00,
2013-04-23 10:07:00,29.7,29.5,30.05,North,350,18.0,26.0,99,0.00,,---,0.08,160.00,VWS V14.01,2013-04-23 15:07:00,
2013-04-23 10:10:00,29.5,29.2,30.05,North,354,19.0,26.0,99,0.00,,---,0.08,165.00,VWS V14.01,2013-04-23 15:10:00,
2013-04-23 10:12:00,29.5,29.2,30.05,NNE,13,19.0,21.0,99,0.00,,---,0.08,164.00,VWS V14.01,2013-04-23 15:12:00,
2013-04-23 10:15:00,29.5,29.2,30.06,North,359,20.0,22.0,99,0.00,,---,0.08,171.00,VWS V14.01,2013-04-23 15:15:00,
2013-04-23 10:17:00,29.4,29.1,30.06,North,356,14.0,22.0,99,0.00,,---,0.08,174.00,VWS V14.01,2013-04-23 15:17:00,
2013-04-23 10:20:00,29.4,29.1,30.06,North,0,18.0,22.0,99,0.00,,---,0.08,206.00,VWS V14.01,2013-04-23 15:20:00,
2013-04-23 10:22:00,29.4,29.1,30.06,North,359,16.0,20.0,99,0.00,,---,0.08,213.00,VWS V14.01,2013-04-23 15:22:00,
2013-04-23 10:25:00,29.4,29.1,30.06,North,0,21.0,21.0,99,0.00,,---,0.08,232.00,VWS V14.01,2013-04-23 15:25:00,
2013-04-23 10:27:00,29.4,29.1,30.06,North,0,19.0,27.0,99,0.00,,---,0.08,239.00,VWS V14.01,2013-04-23 15:27:00,
2013-04-23 10:30:00,29.3,29.0,30.06,North,0,18.0,27.0,99,0.00,,---,0.08,239.00,VWS V14.01,2013-04-23 15:30:00,
2013-04-23 10:33:00,29.4,29.1,30.06,NNE,16,15.0,21.0,99,0.00,,---,0.08,255.00,VWS V14.01,2013-04-23 15:33:00,
2013-04-23 10:35:00,29.4,29.1,30.06,North,0,20.0,22.0,99,0.00,,---,0.08,276.00,VWS V14.01,2013-04-23 15:35:00,
2013-04-23 10:38:00,29.4,29.1,30.06,North,0,16.0,20.0,99,0.00,,---,0.08,280.00,VWS V14.01,2013-04-23 15:38:00,
2013-04-23 10:40:00,29.5,29.2,30.06,North,6,17.0,20.0,99,0.00,,---,0.08,276.00,VWS V14.01,2013-04-23 15:40:00,
2013-04-23 10:43:00,29.5,29.2,30.06,North,354,17.0,19.0,99,0.00,,---,0.08,282.00,VWS V14.01,2013-04-23 15:43:00,
2013-04-23 10:45:00,29.5,29.2,30.06,North,353,8.0,19.0,99,0.00,,---,0.08,267.00,VWS V14.01,2013-04-23 15:45:00,
2013-04-23 10:48:00,29.7,29.5,30.06,NNW,343,10.0,18.0,99,0.00,,---,0.08,259.00,VWS V14.01,2013-04-23 15:48:00,
2013-04-23 10:50:00,29.7,29.7,30.06,North,354,18.0,22.0,100,0.00,,---,0.08,271.00,VWS V14.01,2013-04-23 15:50:00,
2013-04-23 10:53:00,29.7,29.5,30.06,North,0,10.0,18.0,99,0.00,,---,0.08,252.00,VWS V14.01,2013-04-23 15:53:00,
2013-04-23 10:55:00,29.8,29.5,30.06,North,0,17.0,20.0,99,0.00,,---,0.08,267.00,VWS V14.01,2013-04-23 15:55:00,
2013-04-23 10:58:00,29.7,29.5,30.06,North,3,18.0,24.0,99,0.00,,---,0.08,260.00,VWS V14.01,2013-04-23 15:58:00,
2013-04-23 11:00:00,29.7,29.5,30.06,North,0,15.0,24.0,99,0.00,,---,0.08,262.00,VWS V14.01,2013-04-23 16:00:00,
2013-04-23 11:03:00,29.7,29.5,30.06,North,3,17.0,19.0,99,0.00,,---,0.08,245.00,VWS V14.01,2013-04-23 16:03:00,
2013-04-23 11:05:00,29.7,29.5,30.06,NNW,346,10.0,22.0,99,0.00,,---,0.08,250.00,VWS V14.01,2013-04-23 16:05:00,
2013-04-23 11:08:00,29.7,29.5,30.06,North,356,11.0,19.0,99,0.00,,---,0.08,239.00,VWS V14.01,2013-04-23 16:08:00,
2013-04-23 11:10:00,29.7,29.5,30.06,NNE,27,19.0,22.0,99,0.00,,---,0.08,241.00,VWS V14.01,2013-04-23 16:10:00,
2013-04-23 11:13:00,29.7,29.5,30.06,North,359,15.0,24.0,99,0.00,,---,0.08,253.00,VWS V14.01,2013-04-23 16:13:00,
2013-04-23 11:15:00,29.7,29.5,30.06,North,6,10.0,24.0,99,0.00,,---,0.08,259.00,VWS V14.01,2013-04-23 16:15:00,
2013-04-23 11:18:00,29.7,29.5,30.06,North,7,19.0,20.0,99,0.00,,---,0.08,257.00,VWS V14.01,2013-04-23 16:18:00,
2013-04-23 11:20:00,29.7,29.5,30.06,North,0,14.0,21.0,99,0.00,,---,0.08,241.00,VWS V14.01,2013-04-23 16:20:00,
2013-04-23 11:23:00,29.7,29.5,30.06,North,10,14.0,22.0,99,0.00,,---,0.08,232.00,VWS V14.01,2013-04-23 16:23:00,
2013-04-23 11:25:00,29.8,29.5,30.06,North,350,14.0,22.0,99,0.00,,---,0.08,238.00,VWS V14.01,2013-04-23 16:25:00,
2013-04-23 11:28:00,29.8,29.5,30.06,NNE,18,13.0,24.0,99,0.00,,---,0.08,232.00,VWS V14.01,2013-04-23 16:28:00,
2013-04-23 11:30:00,29.8,29.5,30.07,North,0,19.0,24.0,99,0.00,,---,0.08,232.00,VWS V14.01,2013-04-23 16:30:00,
2013-04-23 11:34:00,29.8,29.5,30.07,North,349,8.0,20.0,99,0.00,,---,0.08,243.00,VWS V14.01,2013-04-23 16:34:00,
2013-04-23 11:35:00,29.8,29.5,30.07,North,11,10.0,21.0,99,0.00,,---,0.08,245.00,VWS V14.01,2013-04-23 16:35:00,
2013-04-23 11:39:00,30.0,29.8,30.07,North,0,12.0,19.0,99,0.00,,---,0.08,243.00,VWS V14.01,2013-04-23 16:39:00,
2013-04-23 11:40:00,30.0,29.8,30.07,NNW,344,13.0,19.0,99,0.00,,---,0.08,248.00,VWS V14.01,2013-04-23 16:40:00,
2013-04-23 11:44:00,30.0,29.8,30.07,North,11,14.0,20.0,99,0.00,,---,0.08,255.00,VWS V14.01,2013-04-23 16:44:00,
2013-04-23 11:45:00,30.0,29.8,30.07,North,0,10.0,20.0,99,0.00,,---,0.08,257.00,VWS V14.01,2013-04-23 16:45:00,
2013-04-23 11:49:00,30.1,29.9,30.07,NNW,340,11.0,21.0,99,0.00,,---,0.08,273.00,VWS V14.01,2013-04-23 16:49:00,
2013-04-23 11:50:00,30.1,29.9,30.07,North,0,13.0,21.0,99,0.00,,---,0.08,274.00,VWS V14.01,2013-04-23 16:50:00,
2013-04-23 11:54:00,30.1,29.9,30.07,NNW,337,12.0,18.0,99,0.00,,---,0.08,271.00,VWS V14.01,2013-04-23 16:54:00,
2013-04-23 11:55:00,30.3,30.0,30.07,North,0,20.0,20.0,99,0.00,,---,0.08,274.00,VWS V14.01,2013-04-23 16:55:00,
2013-04-23 11:59:00,30.3,30.0,30.07,North,356,12.0,20.0,99,0.00,,---,0.08,282.00,VWS V14.01,2013-04-23 16:59:00,
2013-04-23 12:00:00,30.3,30.0,30.07,North,8,10.0,20.0,99,0.00,,---,0.08,282.00,VWS V14.01,2013-04-23 17:00:00,
2013-04-23 12:04:00,30.4,30.1,30.07,North,0,8.0,18.0,99,0.00,,---,0.08,282.00,VWS V14.01,2013-04-23 17:04:00,
2013-04-23 12:05:00,30.6,30.4,30.07,WNW,298,8.0,18.0,99,0.00,,---,0.08,283.00,VWS V14.01,2013-04-23 17:05:00,
2013-04-23 12:09:00,30.6,30.4,30.07,North,354,11.0,18.0,99,0.00,,---,0.08,278.00,VWS V14.01,2013-04-23 17:09:00,
2013-04-23 12:10:00,30.7,30.5,30.07,NNE,20,10.0,18.0,99,0.00,,---,0.08,280.00,VWS V14.01,2013-04-23 17:10:00,
2013-04-23 12:14:00,30.7,30.5,30.07,North,0,18.0,19.0,99,0.00,,---,0.08,285.00,VWS V14.01,2013-04-23 17:14:00,
2013-04-23 12:15:00,30.7,30.5,30.07,North,0,11.0,19.0,99,0.00,,---,0.08,280.00,VWS V14.01,2013-04-23 17:15:00,
2013-04-23 12:19:00,30.7,30.5,30.07,North,359,14.0,21.0,99,0.00,,---,0.08,285.00,VWS V14.01,2013-04-23 17:19:00,
2013-04-23 12:20:00,30.7,30.5,30.07,North,0,17.0,22.0,99,0.00,,---,0.08,280.00,VWS V14.01,2013-04-23 17:20:00,
2013-04-23 12:24:00,30.7,30.5,30.07,NNW,329,13.0,20.0,99,0.00,,---,0.08,290.00,VWS V14.01,2013-04-23 17:24:00,
2013-04-23 12:25:00,30.7,30.5,30.07,North,0,17.0,20.0,99,0.00,,---,0.08,297.00,VWS V14.01,2013-04-23 17:25:00,
2013-04-23 12:29:00,30.7,30.5,30.07,NW,319,8.0,21.0,99,0.00,,---,0.08,315.00,VWS V14.01,2013-04-23 17:29:00,
2013-04-23 12:30:00,30.7,30.5,30.07,NNE,16,14.0,21.0,99,0.00,,---,0.08,318.00,VWS V14.01,2013-04-23 17:30:00,
2013-04-23 12:34:00,30.9,30.6,30.07,North,0,13.0,22.0,99,0.00,,---,0.08,329.00,VWS V14.01,2013-04-23 17:34:00,
2013-04-23 12:35:00,30.9,30.4,30.07,North,4,20.0,22.0,98,0.00,,---,0.08,329.00,VWS V14.01,2013-04-23 17:35:00,
2013-04-23 12:39:00,30.9,30.4,30.07,North,0,16.0,21.0,98,0.00,,---,0.08,364.00,VWS V14.01,2013-04-23 17:39:00,
2013-04-23 12:40:00,30.9,30.6,30.07,North,352,11.0,21.0,99,0.00,,---,0.08,371.00,VWS V14.01,2013-04-23 17:40:00,
2013-04-23 12:45:00,31.0,30.5,30.07,North,0,18.0,25.0,98,0.00,,---,0.08,371.00,VWS V14.01,2013-04-23 17:45:00,
2013-04-23 12:50:00,31.0,30.5,30.07,North,0,9.0,19.0,98,0.00,,---,0.08,373.00,VWS V14.01,2013-04-23 17:50:00,
2013-04-23 12:55:00,31.0,30.5,30.07,NW,319,8.0,22.0,98,0.00,,---,0.08,352.00,VWS V14.01,2013-04-23 17:55:00,
2013-04-23 13:00:00,31.2,30.7,30.07,North,353,15.0,22.0,98,0.00,,---,0.08,331.00,VWS V14.01,2013-04-23 18:00:00,
2013-04-23 13:05:00,31.2,30.5,30.07,North,0,16.0,22.0,97,0.00,,---,0.08,331.00,VWS V14.01,2013-04-23 18:05:00,
2013-04-23 13:10:00,31.0,30.2,30.07,NW,311,15.0,19.0,97,0.00,,---,0.08,338.00,VWS V14.01,2013-04-23 18:10:00,
2013-04-23 13:15:00,31.2,30.2,30.07,NNW,340,7.0,24.0,96,0.00,,---,0.08,338.00,VWS V14.01,2013-04-23 18:15:00,
2013-04-23 13:20:00,31.2,30.2,30.07,North,357,16.0,21.0,96,0.00,,---,0.08,322.00,VWS V14.01,2013-04-23 18:20:00,
2013-04-23 13:25:00,31.2,30.2,30.07,North,0,16.0,24.0,96,0.00,,---,0.08,290.00,VWS V14.01,2013-04-23 18:25:00,
2013-04-23 13:30:00,31.0,30.0,30.07,North,0,16.0,21.0,96,0.00,,---,0.08,294.00,VWS V14.01,2013-04-23 18:30:00,
2013-04-23 13:35:00,31.2,30.2,30.07,NNW,347,6.0,19.0,96,0.01,,---,0.09,306.00,VWS V14.01,2013-04-23 18:35:00,
2013-04-23 13:40:00,31.2,30.2,30.07,WNW,291,10.0,22.0,96,0.01,,---,0.09,340.00,VWS V14.01,2013-04-23 18:40:00,
2013-04-23 13:45:00,31.3,30.0,30.06,NW,322,17.0,21.0,95,0.01,,---,0.09,355.00,VWS V14.01,2013-04-23 18:45:00,
2013-04-23 13:50:00,31.2,29.9,30.06,North,0,11.0,21.0,95,0.01,,---,0.09,340.00,VWS V14.01,2013-04-23 18:50:00,
2013-04-23 13:55:00,31.2,29.9,30.06,NW,323,16.0,21.0,95,0.01,,---,0.09,340.00,VWS V14.01,2013-04-23 18:55:00,
2013-04-23 14:00:00,31.2,29.7,30.07,North,349,24.0,24.0,94,0.01,,---,0.09,311.00,VWS V14.01,2013-04-23 19:00:00,
2013-04-23 14:05:00,31.0,29.5,30.07,North,353,10.0,24.0,94,0.02,,---,0.10,317.00,VWS V14.01,2013-04-23 19:05:00,
2013-04-23 14:06:00,31.0,29.5,30.07,North,357,12.0,12.0,94,0.02,,---,0.10,317.00,VWS V14.01,2013-04-23 19:06:00,
2013-04-23 14:10:00,31.0,29.2,30.07,North,349,20.0,21.0,93,0.02,,---,0.10,320.00,VWS V14.01,2013-04-23 19:10:00,
2013-04-23 14:11:00,31.0,29.2,30.07,North,353,18.0,20.0,93,0.02,,---,0.10,320.00,VWS V14.01,2013-04-23 19:11:00,
2013-04-23 14:15:00,31.0,29.0,30.06,NNW,329,14.0,21.0,92,0.02,,---,0.10,341.00,VWS V14.01,2013-04-23 19:15:00,
2013-04-23 14:16:00,31.0,29.0,30.06,North,10,14.0,14.0,92,0.02,,---,0.10,341.00,VWS V14.01,2013-04-23 19:16:00,
2013-04-23 14:20:00,31.2,29.1,30.06,North,353,13.0,22.0,92,0.02,,---,0.10,333.00,VWS V14.01,2013-04-23 19:20:00,
2013-04-23 14:21:00,31.2,29.1,30.06,North,11,8.0,14.0,92,0.02,,---,0.10,333.00,VWS V14.01,2013-04-23 19:21:00,
2013-04-23 14:25:00,31.3,29.2,30.06,North,0,12.0,21.0,92,0.02,,---,0.10,322.00,VWS V14.01,2013-04-23 19:25:00,
2013-04-23 14:26:00,31.3,29.2,30.06,NNW,347,19.0,20.0,92,0.02,,---,0.10,322.00,VWS V14.01,2013-04-23 19:26:00,
2013-04-23 14:30:00,31.3,29.2,30.06,North,0,13.0,21.0,92,0.02,,---,0.10,331.00,VWS V14.01,2013-04-23 19:30:00,
2013-04-23 14:31:00,31.3,29.2,30.06,North,0,7.0,13.0,92,0.02,,---,0.10,331.00,VWS V14.01,2013-04-23 19:31:00,
2013-04-23 14:35:00,31.5,29.5,30.06,North,357,16.0,18.0,92,0.02,,---,0.10,338.00,VWS V14.01,2013-04-23 19:35:00,
2013-04-23 14:36:00,31.5,29.5,30.06,North,350,13.0,18.0,92,0.01,,---,0.10,338.00,VWS V14.01,2013-04-23 19:36:00,
2013-04-23 14:40:00,31.5,29.5,30.06,North,0,10.0,24.0,92,0.01,,---,0.10,362.00,VWS V14.01,2013-04-23 19:40:00,
2013-04-23 14:41:00,31.5,29.2,30.06,NNW,343,10.0,14.0,91,0.01,,---,0.10,364.00,VWS V14.01,2013-04-23 19:41:00,
2013-04-23 14:45:00,31.5,29.5,30.06,North,352,12.0,17.0,92,0.01,,---,0.10,366.00,VWS V14.01,2013-04-23 19:45:00,
2013-04-23 14:46:00,31.5,29.2,30.06,North,349,15.0,19.0,91,0.01,,---,0.10,364.00,VWS V14.01,2013-04-23 19:46:00,
2013-04-23 14:50:00,31.5,29.2,30.06,North,0,13.0,19.0,91,0.01,,---,0.10,371.00,VWS V14.01,2013-04-23 19:50:00,
2013-04-23 14:51:00,31.5,29.2,30.06,North,349,16.0,19.0,91,0.01,,---,0.10,368.00,VWS V14.01,2013-04-23 19:51:00,
2013-04-23 14:55:00,31.5,29.2,30.06,NNW,335,13.0,20.0,91,0.01,,---,0.10,371.00,VWS V14.01,2013-04-23 19:55:00,
2013-04-23 14:56:00,31.5,29.2,30.06,NNW,333,16.0,21.0,91,0.01,,---,0.10,371.00,VWS V14.01,2013-04-23 19:56:00,
2013-04-23 15:00:00,31.5,29.2,30.06,NNW,342,9.0,21.0,91,0.01,,---,0.10,378.00,VWS V14.01,2013-04-23 20:00:00,
2013-04-23 15:01:00,31.5,29.2,30.06,North,0,13.0,13.0,91,0.01,,---,0.10,380.00,VWS V14.01,2013-04-23 20:01:00,
2013-04-23 15:05:00,31.6,29.0,30.06,NNW,340,13.0,20.0,90,0.02,,---,0.11,371.00,VWS V14.01,2013-04-23 20:05:00,
2013-04-23 15:06:00,31.6,29.0,30.06,NNW,333,19.0,20.0,90,0.01,,---,0.11,361.00,VWS V14.01,2013-04-23 20:06:00,
2013-04-23 15:10:00,31.6,29.0,30.06,North,0,17.0,21.0,90,0.01,,---,0.11,338.00,VWS V14.01,2013-04-23 20:10:00,
2013-04-23 15:11:00,31.6,29.0,30.06,North,0,12.0,20.0,90,0.01,,---,0.11,338.00,VWS V14.01,2013-04-23 20:11:00,
2013-04-23 15:15:00,31.6,28.7,30.06,NNW,333,7.0,20.0,89,0.01,,---,0.11,343.00,VWS V14.01,2013-04-23 20:15:00,
2013-04-23 15:17:00,31.6,28.7,30.06,North,354,13.0,16.0,89,0.01,,---,0.11,345.00,VWS V14.01,2013-04-23 20:17:00,
2013-04-23 15:20:00,31.8,28.9,30.06,North,356,12.0,20.0,89,0.01,,---,0.11,340.00,VWS V14.01,2013-04-23 20:20:00,
2013-04-23 15:22:00,31.8,28.9,30.06,North,0,13.0,19.0,89,0.01,,---,0.11,329.00,VWS V14.01,2013-04-23 20:22:00,
2013-04-23 15:25:00,31.9,29.0,30.06,North,0,13.0,20.0,89,0.01,,---,0.11,304.00,VWS V14.01,2013-04-23 20:25:00,
2013-04-23 15:27:00,31.9,29.0,30.06,North,356,18.0,18.0,89,0.01,,---,0.11,303.00,VWS V14.01,2013-04-23 20:27:00,
2013-04-23 15:30:00,31.8,28.9,30.05,North,6,13.0,19.0,89,0.01,,---,0.11,287.00,VWS V14.01,2013-04-23 20:30:00,
2013-04-23 15:32:00,31.8,28.9,30.05,North,0,10.0,14.0,89,0.01,,---,0.11,285.00,VWS V14.01,2013-04-23 20:32:00,
2013-04-23 15:35:00,31.8,28.9,30.05,North,0,8.0,15.0,89,0.01,,---,0.11,280.00,VWS V14.01,2013-04-23 20:35:00,
2013-04-23 15:37:00,31.9,29.0,30.05,NNW,333,9.0,12.0,89,0.01,,---,0.11,278.00,VWS V14.01,2013-04-23 20:37:00,
2013-04-23 15:40:00,31.9,29.0,30.05,North,353,10.0,17.0,89,0.01,,---,0.11,285.00,VWS V14.01,2013-04-23 20:40:00,
2013-04-23 15:42:00,31.9,29.0,30.05,NNW,346,6.0,14.0,89,0.01,,---,0.11,287.00,VWS V14.01,2013-04-23 20:42:00,
2013-04-23 15:45:00,32.1,29.2,30.05,North,357,13.0,17.0,89,0.01,,---,0.11,292.00,VWS V14.01,2013-04-23 20:45:00,
2013-04-23 15:47:00,32.1,29.2,30.05,North,353,8.0,18.0,89,0.01,,---,0.11,292.00,VWS V14.01,2013-04-23 20:47:00,
2013-04-23 15:50:00,32.1,29.2,30.05,North,349,19.0,20.0,89,0.01,,---,0.11,294.00,VWS V14.01,2013-04-23 20:50:00,
2013-04-23 15:52:00,31.9,29.0,30.05,North,357,16.0,19.0,89,0.01,,---,0.11,289.00,VWS V14.01,2013-04-23 20:52:00,
2013-04-23 15:55:00,31.9,29.0,30.05,North,359,11.0,19.0,89,0.01,,---,0.11,294.00,VWS V14.01,2013-04-23 20:55:00,
2013-04-23 15:57:00,31.9,29.0,30.05,NNW,343,16.0,19.0,89,0.01,,---,0.11,290.00,VWS V14.01,2013-04-23 20:57:00,
2013-04-23 16:00:00,31.9,29.0,30.05,NNW,342,12.0,19.0,89,0.02,,---,0.12,273.00,VWS V14.01,2013-04-23 21:00:00,
2013-04-23 16:02:00,31.9,29.0,30.05,North,0,13.0,17.0,89,0.02,,---,0.12,262.00,VWS V14.01,2013-04-23 21:02:00,
2013-04-23 16:05:00,32.1,29.2,30.05,North,0,10.0,17.0,89,0.02,,---,0.12,262.00,VWS V14.01,2013-04-23 21:05:00,
2013-04-23 16:07:00,32.1,29.2,30.05,West,281,5.0,12.0,89,0.01,,---,0.12,262.00,VWS V14.01,2013-04-23 21:07:00,
2013-04-23 16:10:00,32.1,29.2,30.05,NNW,342,12.0,14.0,89,0.01,,---,0.12,259.00,VWS V14.01,2013-04-23 21:10:00,
2013-04-23 16:12:00,32.1,29.2,30.05,NW,322,13.0,17.0,89,0.01,,---,0.12,248.00,VWS V14.01,2013-04-23 21:12:00,
2013-04-23 16:15:00,32.1,29.0,30.05,North,350,14.0,18.0,88,0.01,,---,0.12,229.00,VWS V14.01,2013-04-23 21:15:00,
2013-04-23 16:18:00,32.1,29.2,30.05,North,0,10.0,18.0,89,0.01,,---,0.12,225.00,VWS V14.01,2013-04-23 21:18:00,
2013-04-23 16:20:00,32.1,29.0,30.05,North,354,11.0,18.0,88,0.01,,---,0.12,223.00,VWS V14.01,2013-04-23 21:20:00,
2013-04-23 16:23:00,32.1,29.2,30.05,North,0,11.0,14.0,89,0.01,,---,0.12,225.00,VWS V14.01,2013-04-23 21:23:00,
2013-04-23 16:25:00,32.2,29.3,30.05,North,0,12.0,17.0,89,0.01,,---,0.12,227.00,VWS V14.01,2013-04-23 21:25:00,
2013-04-23 16:28:00,32.2,29.3,30.05,NNW,346,16.0,18.0,89,0.01,,---,0.12,227.00,VWS V14.01,2013-04-23 21:28:00,
2013-04-23 16:30:00,32.2,29.0,30.04,NNW,330,11.0,18.0,88,0.01,,---,0.12,222.00,VWS V14.01,2013-04-23 21:30:00,
2013-04-23 16:33:00,32.2,29.0,30.04,North,359,13.0,17.0,88,0.01,,---,0.12,229.00,VWS V14.01,2013-04-23 21:33:00,
2013-04-23 16:35:00,32.2,29.3,30.04,North,353,7.0,17.0,89,0.01,,---,0.12,245.00,VWS V14.01,2013-04-23 21:35:00,
2013-04-23 16:38:00,32.4,29.5,30.04,NNW,337,6.0,13.0,89,0.01,,---,0.12,238.00,VWS V14.01,2013-04-23 21:38:00,
2013-04-23 16:40:00,32.4,29.5,30.04,North,0,12.0,14.0,89,0.01,,---,0.12,229.00,VWS V14.01,2013-04-23 21:40:00,
2013-04-23 16:43:00,32.4,29.5,30.04,North,350,9.0,16.0,89,0.01,,---,0.12,223.00,VWS V14.01,2013-04-23 21:43:00,
2013-04-23 16:45:00,32.4,29.5,30.04,North,11,7.0,17.0,89,0.01,,---,0.12,215.00,VWS V14.01,2013-04-23 21:45:00,
2013-04-23 16:48:00,32.4,29.5,30.04,NNE,14,10.0,19.0,89,0.01,,---,0.12,213.00,VWS V14.01,2013-04-23 21:48:00,
2013-04-23 16:50:00,32.4,29.5,30.04,North,349,19.0,19.0,89,0.01,,---,0.12,223.00,VWS V14.01,2013-04-23 21:50:00,
2013-04-23 16:53:00,32.4,29.2,30.04,NNW,344,7.0,19.0,88,0.01,,---,0.12,229.00,VWS V14.01,2013-04-23 21:53:00,
2013-04-23 16:55:00,32.4,29.5,30.04,North,0,7.0,19.0,89,0.01,,---,0.12,253.00,VWS V14.01,2013-04-23 21:55:00,
2013-04-23 16:58:00,32.5,29.6,30.04,NNW,347,10.0,14.0,89,0.01,,---,0.12,273.00,VWS V14.01,2013-04-23 21:58:00,
2013-04-23 17:00:00,32.5,29.6,30.03,North,357,13.0,17.0,89,0.01,,---,0.12,238.00,VWS V14.01,2013-04-23 22:00:00,
2013-04-23 17:03:00,32.5,29.6,30.03,NNW,342,12.0,16.0,89,0.00,,---,0.12,223.00,VWS V14.01,2013-04-23 22:03:00,
2013-04-23 17:05:00,32.5,29.6,30.03,NW,325,7.0,18.0,89,0.00,,---,0.12,223.00,VWS V14.01,2013-04-23 22:05:00,
2013-04-23 17:08:00,32.5,29.4,30.03,North,357,15.0,20.0,88,0.00,,---,0.12,195.00,VWS V14.01,2013-04-23 22:08:00,
2013-04-23 17:10:00,32.5,29.4,30.03,North,352,16.0,20.0,88,0.00,,---,0.12,178.00,VWS V14.01,2013-04-23 22:10:00,
2013-04-23 17:13:00,32.5,29.6,30.03,North,4,17.0,17.0,89,0.00,,---,0.12,165.00,VWS V14.01,2013-04-23 22:13:00,
2013-04-23 17:15:00,32.5,29.6,30.04,North,352,10.0,17.0,89,0.00,,---,0.12,158.00,VWS V14.01,2013-04-23 22:15:00,
2013-04-23 17:18:00,32.5,29.6,30.04,North,0,13.0,19.0,89,0.00,,---,0.12,151.00,VWS V14.01,2013-04-23 22:18:00,
2013-04-23 17:20:00,32.4,29.2,30.04,WNW,302,10.0,19.0,88,0.00,,---,0.12,146.00,VWS V14.01,2013-04-23 22:20:00,
2013-04-23 17:23:00,32.4,29.5,30.04,NW,305,12.0,16.0,89,0.00,,---,0.12,137.00,VWS V14.01,2013-04-23 22:23:00,
2013-04-23 17:25:00,32.4,29.5,30.04,North,0,13.0,16.0,89,0.00,,---,0.12,127.00,VWS V14.01,2013-04-23 22:25:00,
2013-04-23 17:29:00,32.4,29.2,30.04,NNW,336,11.0,17.0,88,0.00,,---,0.12,123.00,VWS V14.01,2013-04-23 22:29:00,
2013-04-23 17:30:00,32.4,29.5,30.04,North,353,13.0,17.0,89,0.00,,---,0.12,121.00,VWS V14.01,2013-04-23 22:30:00,
2013-04-23 17:34:00,32.4,29.2,30.04,NNW,342,11.0,18.0,88,0.00,,---,0.12,118.00,VWS V14.01,2013-04-23 22:34:00,
2013-04-23 17:35:00,32.2,29.0,30.04,North,353,12.0,18.0,88,0.00,,---,0.12,114.00,VWS V14.01,2013-04-23 22:35:00,
2013-04-23 17:39:00,32.4,29.2,30.04,NNW,344,12.0,16.0,88,0.00,,---,0.12,113.00,VWS V14.01,2013-04-23 22:39:00,
2013-04-23 17:40:00,32.4,29.2,30.04,NNW,344,14.0,16.0,88,0.00,,---,0.12,114.00,VWS V14.01,2013-04-23 22:40:00,
2013-04-23 17:44:00,32.2,29.0,30.04,North,0,14.0,17.0,88,0.01,,---,0.13,114.00,VWS V14.01,2013-04-23 22:44:00,
2013-04-23 17:45:00,32.2,29.0,30.04,NNW,342,16.0,17.0,88,0.01,,---,0.13,118.00,VWS V14.01,2013-04-23 22:45:00,
2013-04-23 17:49:00,32.4,29.2,30.04,North,0,13.0,16.0,88,0.01,,---,0.13,134.00,VWS V14.01,2013-04-23 22:49:00,
2013-04-23 17:50:00,32.4,29.2,30.04,North,356,8.0,16.0,88,0.01,,---,0.13,135.00,VWS V14.01,2013-04-23 22:50:00,
2013-04-23 17:54:00,32.4,29.5,30.04,NNW,347,9.0,12.0,89,0.01,,---,0.13,130.00,VWS V14.01,2013-04-23 22:54:00,
2013-04-23 17:55:00,32.4,29.2,30.04,NNW,340,6.0,12.0,88,0.01,,---,0.13,137.00,VWS V14.01,2013-04-23 22:55:00,
2013-04-23 17:59:00,32.4,29.2,30.04,North,350,14.0,18.0,88,0.01,,---,0.13,135.00,VWS V14.01,2013-04-23 22:59:00,
2013-04-23 18:00:00,32.4,29.2,30.04,North,354,16.0,18.0,88,0.01,,---,0.13,127.00,VWS V14.01,2013-04-23 23:00:00,
2013-04-23 18:04:00,32.4,29.2,30.04,North,0,13.0,14.0,88,0.01,,---,0.13,123.00,VWS V14.01,2013-04-23 23:04:00,
2013-04-23 18:05:00,32.5,29.4,30.04,WNW,296,6.0,14.0,88,0.01,,---,0.13,121.00,VWS V14.01,2013-04-23 23:05:00,
2013-04-23 18:09:00,32.5,29.4,30.04,NNW,336,8.0,13.0,88,0.01,,---,0.13,109.00,VWS V14.01,2013-04-23 23:09:00,
2013-04-23 18:10:00,32.5,29.4,30.04,NNW,333,12.0,13.0,88,0.01,,---,0.13,106.00,VWS V14.01,2013-04-23 23:10:00,
2013-04-23 18:14:00,32.5,29.4,30.04,NNW,344,3.0,13.0,88,0.01,,---,0.13,102.00,VWS V14.01,2013-04-23 23:14:00,
2013-04-23 18:15:00,32.5,29.4,30.04,NNW,343,6.0,13.0,88,0.01,,---,0.13,93.00,VWS V14.01,2013-04-23 23:15:00,
2013-04-23 18:19:00,32.5,29.4,30.04,NNW,342,7.0,11.0,88,0.01,,---,0.13,91.00,VWS V14.01,2013-04-23 23:19:00,
2013-04-23 18:20:00,32.5,29.6,30.04,North,0,10.0,12.0,89,0.01,,---,0.13,106.00,VWS V14.01,2013-04-23 23:20:00,
2013-04-23 18:24:00,32.5,29.6,30.04,NNW,337,5.0,12.0,89,0.01,,---,0.13,109.00,VWS V14.01,2013-04-23 23:24:00,
2013-04-23 18:25:00,32.5,29.6,30.04,North,349,7.0,13.0,89,0.01,,---,0.13,99.00,VWS V14.01,2013-04-23 23:25:00,
2013-04-23 18:29:00,32.7,29.8,30.04,North,0,11.0,12.0,89,0.01,,---,0.13,79.00,VWS V14.01,2013-04-23 23:29:00,
2013-04-23 18:30:00,32.5,29.6,30.04,North,0,9.0,12.0,89,0.01,,---,0.13,63.00,VWS V14.01,2013-04-23 23:30:00,
2013-04-23 18:34:00,32.5,29.6,30.04,NNW,342,6.0,10.0,89,0.01,,---,0.13,55.00,VWS V14.01,2013-04-23 23:34:00,
2013-04-23 18:35:00,32.7,29.8,30.04,North,356,5.0,10.0,89,0.01,,---,0.13,55.00,VWS V14.01,2013-04-23 23:35:00,
2013-04-23 18:40:00,32.5,29.6,30.04,NNW,342,11.0,13.0,89,0.01,,---,0.13,65.00,VWS V14.01,2013-04-23 23:40:00,
2013-04-23 18:45:00,32.5,29.6,30.04,North,0,9.0,12.0,89,0.01,,---,0.13,62.00,VWS V14.01,2013-04-23 23:45:00,
2013-04-23 18:50:00,32.5,29.6,30.04,NNW,340,10.0,11.0,89,0.00,,---,0.13,56.00,VWS V14.01,2013-04-23 23:50:00,
2013-04-23 18:55:00,32.7,29.8,30.04,North,356,8.0,11.0,89,0.00,,---,0.13,46.00,VWS V14.01,2013-04-23 23:55:00,
2013-04-23 19:00:00,32.7,29.8,30.04,NNW,342,6.0,11.0,89,0.00,,---,0.13,42.00,VWS V14.01,2013-04-24 00:00:00,
2013-04-23 19:05:00,32.7,29.8,30.04,NW,326,3.0,12.0,89,0.00,,---,0.13,39.00,VWS V14.01,2013-04-24 00:05:00,
2013-04-23 19:10:00,32.7,29.8,30.04,North,350,7.0,9.0,89,0.00,,---,0.13,35.00,VWS V14.01,2013-04-24 00:10:00,
2013-04-23 19:15:00,32.7,29.8,30.04,NNW,340,7.0,10.0,89,0.00,,---,0.13,32.00,VWS V14.01,2013-04-24 00:15:00,
2013-04-23 19:20:00,32.7,30.1,30.04,NNW,344,6.0,10.0,90,0.00,,---,0.13,30.00,VWS V14.01,2013-04-24 00:20:00,
2013-04-23 19:25:00,32.7,30.1,30.04,NNW,329,8.0,8.0,90,0.00,,---,0.13,25.00,VWS V14.01,2013-04-24 00:25:00,
2013-04-23 19:30:00,32.7,30.1,30.04,NW,323,4.0,8.0,90,0.00,,---,0.13,23.00,VWS V14.01,2013-04-24 00:30:00,
2013-04-23 19:35:00,32.7,30.1,30.04,NW,322,3.0,8.0,90,0.00,,---,0.13,14.00,VWS V14.01,2013-04-24 00:35:00,
2013-04-23 19:40:00,32.7,30.4,30.04,North,0,6.0,7.0,91,0.00,,---,0.13,12.00,VWS V14.01,2013-04-24 00:40:00,
2013-04-23 19:45:00,32.7,30.4,30.04,North,354,6.0,8.0,91,0.00,,---,0.13,11.00,VWS V14.01,2013-04-24 00:45:00,
2013-04-23 19:50:00,32.7,30.6,30.04,NW,308,1.0,8.0,92,0.00,,---,0.13,11.00,VWS V14.01,2013-04-24 00:50:00,
2013-04-23 19:51:00,32.7,30.6,30.04,North,356,5.0,5.0,92,0.00,,---,0.13,11.00,VWS V14.01,2013-04-24 00:51:00,
2013-04-23 19:55:00,32.7,30.6,30.04,NNW,346,7.0,10.0,92,0.00,,---,0.13,5.00,VWS V14.01,2013-04-24 00:55:00,
2013-04-23 19:56:00,32.7,30.6,30.04,NW,313,5.0,7.0,92,0.00,,---,0.13,5.00,VWS V14.01,2013-04-24 00:56:00,
2013-04-23 20:00:00,32.7,30.6,30.04,NNW,330,6.0,8.0,92,0.00,,---,0.13,0.00,VWS V14.01,2013-04-24 01:00:00,
2013-04-23 20:01:00,32.7,30.6,30.04,NW,316,3.0,6.0,92,0.00,,---,0.13,0.00,VWS V14.01,2013-04-24 01:01:00,
2013-04-23 20:05:00,32.7,30.6,30.04,NNW,342,5.0,7.0,92,0.00,,---,0.13,0.00,VWS V14.01,2013-04-24 01:05:00,
2013-04-23 20:06:00,32.7,30.6,30.04,NW,306,5.0,5.0,92,0.00,,---,0.13,0.00,VWS V14.01,2013-04-24 01:06:00,
2013-04-23 20:10:00,32.7,30.6,30.04,WNW,295,5.0,7.0,92,0.00,,---,0.13,0.00,VWS V14.01,2013-04-24 01:10:00,
2013-04-23 20:11:00,32.7,30.6,30.04,WNW,296,6.0,6.0,92,0.00,,---,0.13,0.00,VWS V14.01,2013-04-24 01:11:00,
2013-04-23 20:15:00,32.7,30.6,30.05,WNW,294,4.0,6.0,92,0.00,,---,0.13,0.00,VWS V14.01,2013-04-24 01:15:00,
2013-04-23 20:16:00,32.7,30.6,30.05,WNW,294,5.0,6.0,92,0.00,,---,0.13,0.00,VWS V14.01,2013-04-24 01:16:00,
2013-04-23 20:20:00,32.7,30.9,30.05,NW,322,5.0,8.0,93,0.00,,---,0.13,0.00,VWS V14.01,2013-04-24 01:20:00,
2013-04-23 20:21:00,32.7,30.9,30.05,NW,304,5.0,6.0,93,0.00,,---,0.13,0.00,VWS V14.01,2013-04-24 01:21:00,
2013-04-23 20:25:00,32.7,30.9,30.05,WNW,289,5.0,7.0,93,0.00,,---,0.13,0.00,VWS V14.01,2013-04-24 01:25:00,
2013-04-23 20:26:00,32.7,30.9,30.05,WNW,292,6.0,6.0,93,0.00,,---,0.13,0.00,VWS V14.01,2013-04-24 01:26:00,
2013-04-23 20:30:00,32.7,30.6,30.06,WNW,289,6.0,6.0,92,0.00,,---,0.13,0.00,VWS V14.01,2013-04-24 01:30:00,
2013-04-23 20:31:00,32.7,30.6,30.06,WNW,295,5.0,6.0,92,0.00,,---,0.13,0.00,VWS V14.01,2013-04-24 01:31:00,
2013-04-23 20:35:00,32.7,30.6,30.06,NNW,337,6.0,8.0,92,0.00,,---,0.13,0.00,VWS V14.01,2013-04-24 01:35:00,
2013-04-23 20:36:00,32.7,30.6,30.06,NW,319,5.0,6.0,92,0.00,,---,0.13,0.00,VWS V14.01,2013-04-24 01:36:00,
2013-04-23 20:40:00,32.7,30.6,30.06,WNW,284,5.0,9.0,92,0.00,,---,0.13,0.00,VWS V14.01,2013-04-24 01:40:00,
2013-04-23 20:41:00,32.7,30.6,30.06,North,0,5.0,6.0,92,0.00,,---,0.13,0.00,VWS V14.01,2013-04-24 01:41:00,
2013-04-23 20:45:00,32.7,30.6,30.06,North,0,4.0,6.0,92,0.00,,---,0.13,0.00,VWS V14.01,2013-04-24 01:45:00,
2013-04-23 20:46:00,32.7,30.6,30.06,WNW,295,5.0,6.0,92,0.00,,---,0.13,0.00,VWS V14.01,2013-04-24 01:46:00,
2013-04-23 20:50:00,32.7,30.6,30.06,NW,305,5.0,7.0,92,0.00,,---,0.13,0.00,VWS V14.01,2013-04-24 01:50:00,
2013-04-23 20:52:00,32.7,30.6,30.06,WNW,282,3.0,6.0,92,0.00,,---,0.13,0.00,VWS V14.01,2013-04-24 01:52:00,
2013-04-23 20:55:00,32.7,30.6,30.06,North,354,4.0,7.0,92,0.00,,---,0.13,0.00,VWS V14.01,2013-04-24 01:55:00,
2013-04-23 20:57:00,32.8,30.7,30.06,NW,305,5.0,7.0,92,0.00,,---,0.13,0.00,VWS V14.01,2013-04-24 01:57:00,
2013-04-23 21:00:00,32.8,30.7,30.07,NNW,340,4.0,7.0,92,0.00,,---,0.13,0.00,VWS V14.01,2013-04-24 02:00:00,
2013-04-23 21:02:00,32.8,30.7,30.07,North,352,3.0,6.0,92,0.00,,---,0.13,0.00,VWS V14.01,2013-04-24 02:02:00,
2013-04-23 21:05:00,32.7,30.6,30.07,WNW,302,5.0,7.0,92,0.00,,---,0.13,0.00,VWS V14.01,2013-04-24 02:05:00,
2013-04-23 21:07:00,32.7,30.6,30.07,NW,315,6.0,6.0,92,0.00,,---,0.13,0.00,VWS V14.01,2013-04-24 02:07:00,
2013-04-23 21:10:00,32.7,30.6,30.07,North,359,3.0,6.0,92,0.00,,---,0.13,0.00,VWS V14.01,2013-04-24 02:10:00,
2013-04-23 21:12:00,32.7,30.6,30.07,North,0,6.0,8.0,92,0.00,,---,0.13,0.00,VWS V14.01,2013-04-24 02:12:00,
2013-04-23 21:15:00,32.7,30.4,30.07,WNW,289,3.0,8.0,91,0.00,,---,0.13,0.00,VWS V14.01,2013-04-24 02:15:00,
2013-04-23 21:17:00,32.7,30.4,30.07,NNW,343,5.0,6.0,91,0.00,,---,0.13,0.00,VWS V14.01,2013-04-24 02:17:00,
2013-04-23 21:20:00,32.7,30.4,30.07,North,350,3.0,6.0,91,0.00,,---,0.13,0.00,VWS V14.01,2013-04-24 02:20:00,
2013-04-23 21:22:00,32.7,30.4,30.07,North,352,6.0,6.0,91,0.00,,---,0.13,0.00,VWS V14.01,2013-04-24 02:22:00,
2013-04-23 21:25:00,32.7,30.4,30.07,WNW,288,5.0,7.0,91,0.00,,---,0.13,0.00,VWS V14.01,2013-04-24 02:25:00,
2013-04-23 21:27:00,32.7,30.4,30.07,North,349,4.0,6.0,91,0.00,,---,0.13,0.00,VWS V14.01,2013-04-24 02:27:00,
2013-04-23 21:30:00,32.7,30.4,30.08,WNW,295,6.0,6.0,91,0.00,,---,0.13,0.00,VWS V14.01,2013-04-24 02:30:00,
2013-04-23 21:33:00,32.7,30.4,30.08,WNW,296,4.0,6.0,91,0.00,,---,0.13,0.00,VWS V14.01,2013-04-24 02:33:00,
2013-04-23 21:35:00,32.7,30.4,30.08,North,353,6.0,7.0,91,0.00,,---,0.13,0.00,VWS V14.01,2013-04-24 02:35:00,
2013-04-23 21:38:00,32.7,30.4,30.08,WNW,299,7.0,7.0,91,0.00,,---,0.13,0.00,VWS V14.01,2013-04-24 02:38:00,
2013-04-23 21:40:00,32.7,30.4,30.08,NW,316,6.0,7.0,91,0.00,,---,0.13,0.00,VWS V14.01,2013-04-24 02:40:00,
2013-04-23 21:43:00,32.7,30.4,30.08,North,354,6.0,7.0,91,0.00,,---,0.13,0.00,VWS V14.01,2013-04-24 02:43:00,
2013-04-23 21:45:00,32.8,30.5,30.10,NNW,337,7.0,7.0,91,0.00,,---,0.13,0.00,VWS V14.01,2013-04-24 02:45:00,
2013-04-23 21:48:00,32.8,30.5,30.10,WNW,299,5.0,7.0,91,0.00,,---,0.13,0.00,VWS V14.01,2013-04-24 02:48:00,
2013-04-23 21:50:00,32.8,30.2,30.10,WNW,295,6.0,7.0,90,0.00,,---,0.13,0.00,VWS V14.01,2013-04-24 02:50:00,
2013-04-23 21:54:00,32.8,30.2,30.10,WNW,289,5.0,6.0,90,0.00,,---,0.13,0.00,VWS V14.01,2013-04-24 02:54:00,
2013-04-23 21:55:00,32.8,30.2,30.10,WNW,294,5.0,6.0,90,0.00,,---,0.13,0.00,VWS V14.01,2013-04-24 02:55:00,
2013-04-23 21:59:00,32.8,30.2,30.10,WNW,292,5.0,6.0,90,0.00,,---,0.13,0.00,VWS V14.01,2013-04-24 02:59:00,
2013-04-23 22:00:00,32.7,30.1,30.11,WNW,294,4.0,6.0,90,0.00,,---,0.13,0.00,VWS V14.01,2013-04-24 03:00:00,
2013-04-23 22:04:00,32.7,30.1,30.11,WNW,292,5.0,5.0,90,0.00,,---,0.13,0.00,VWS V14.01,2013-04-24 03:04:00,
2013-04-23 22:05:00,32.7,30.1,30.11,WNW,291,5.0,5.0,90,0.00,,---,0.13,0.00,VWS V14.01,2013-04-24 03:05:00,
2013-04-23 22:09:00,32.7,30.1,30.11,WNW,285,4.0,5.0,90,0.00,,---,0.13,0.00,VWS V14.01,2013-04-24 03:09:00,
2013-04-23 22:10:00,32.7,30.1,30.11,WNW,287,3.0,6.0,90,0.00,,---,0.13,0.00,VWS V14.01,2013-04-24 03:10:00,
2013-04-23 22:14:00,32.7,30.1,30.11,WNW,296,4.0,5.0,90,0.00,,---,0.13,0.00,VWS V14.01,2013-04-24 03:14:00,
2013-04-23 22:15:00,32.7,30.1,30.11,WNW,295,4.0,5.0,90,0.00,,---,0.13,0.00,VWS V14.01,2013-04-24 03:15:00,
2013-04-23 22:20:00,32.7,30.1,30.11,WNW,299,5.0,6.0,90,0.00,,---,0.13,0.00,VWS V14.01,2013-04-24 03:20:00,
2013-04-23 22:25:00,32.7,29.8,30.11,North,356,5.0,7.0,89,0.00,,---,0.13,0.00,VWS V14.01,2013-04-24 03:25:00,
2013-04-23 22:30:00,32.7,29.8,30.11,North,356,4.0,6.0,89,0.00,,---,0.13,0.00,VWS V14.01,2013-04-24 03:30:00,
2013-04-23 22:35:00,32.7,29.8,30.11,NNW,346,5.0,7.0,89,0.00,,---,0.13,0.00,VWS V14.01,2013-04-24 03:35:00,
2013-04-23 22:36:00,32.7,29.8,30.11,NNW,328,4.0,5.0,89,0.00,,---,0.13,0.00,VWS V14.01,2013-04-24 03:36:00,
2013-04-23 22:40:00,32.7,29.8,30.11,NW,323,5.0,7.0,89,0.00,,---,0.13,0.00,VWS V14.01,2013-04-24 03:40:00,
2013-04-23 22:41:00,32.7,29.8,30.11,NW,322,4.0,5.0,89,0.00,,---,0.13,0.00,VWS V14.01,2013-04-24 03:41:00,
2013-04-23 22:45:00,32.7,29.8,30.11,NW,325,3.0,6.0,89,0.00,,---,0.13,0.00,VWS V14.01,2013-04-24 03:45:00,
2013-04-23 22:46:00,32.7,29.8,30.11,NW,319,4.0,6.0,89,0.00,,---,0.13,0.00,VWS V14.01,2013-04-24 03:46:00,
2013-04-23 22:50:00,32.7,29.5,30.11,North,354,2.0,6.0,88,0.00,,---,0.13,0.00,VWS V14.01,2013-04-24 03:50:00,
2013-04-23 22:51:00,32.7,29.5,30.11,NW,319,3.0,5.0,88,0.00,,---,0.13,0.00,VWS V14.01,2013-04-24 03:51:00,
2013-04-23 22:55:00,32.7,29.5,30.11,North,0,6.0,6.0,88,0.00,,---,0.13,0.00,VWS V14.01,2013-04-24 03:55:00,
2013-04-23 22:57:00,32.5,29.4,30.11,NW,305,5.0,6.0,88,0.00,,---,0.13,0.00,VWS V14.01,2013-04-24 03:57:00,
2013-04-23 23:00:00,32.7,29.3,30.11,NW,316,6.0,6.0,87,0.00,,---,0.13,0.00,VWS V14.01,2013-04-24 04:00:00,
2013-04-23 23:01:00,32.7,29.3,30.11,North,0,5.0,6.0,87,0.00,,---,0.13,0.00,VWS V14.01,2013-04-24 04:01:00,
2013-04-23 23:02:00,32.7,29.3,30.11,North,0,5.0,6.0,87,0.00,,---,0.13,0.00,VWS V14.01,2013-04-24 04:02:00,
2013-04-23 23:05:00,32.7,29.3,30.11,NW,315,3.0,6.0,87,0.00,,---,0.13,0.00,VWS V14.01,2013-04-24 04:05:00,
2013-04-23 23:10:00,32.7,29.0,30.11,NNW,328,3.0,6.0,86,0.00,,---,0.13,0.00,VWS V14.01,2013-04-24 04:10:00,
2013-04-23 23:15:00,32.7,29.0,30.09,NNW,330,4.0,6.0,86,0.00,,---,0.13,0.00,VWS V14.01,2013-04-24 04:15:00,
2013-04-23 23:20:00,32.5,28.8,30.09,NW,323,5.0,7.0,86,0.00,,---,0.13,0.00,VWS V14.01,2013-04-24 04:20:00,
2013-04-23 23:25:00,32.5,28.5,30.09,NW,309,5.0,7.0,85,0.00,,---,0.13,0.00,VWS V14.01,2013-04-24 04:25:00,
2013-04-23 23:30:00,32.5,28.5,30.11,NW,319,4.0,7.0,85,0.00,,---,0.13,0.00,VWS V14.01,2013-04-24 04:30:00,
2013-04-23 23:35:00,32.5,28.5,30.11,NW,319,3.0,6.0,85,0.00,,---,0.13,0.00,VWS V14.01,2013-04-24 04:35:00,
2013-04-23 23:40:00,32.5,28.2,30.11,North,0,6.0,7.0,84,0.00,,---,0.13,0.00,VWS V14.01,2013-04-24 04:40:00,
2013-04-23 23:45:00,32.5,28.2,30.12,North,350,5.0,7.0,84,0.00,,---,0.13,0.00,VWS V14.01,2013-04-24 04:45:00,
2013-04-23 23:50:00,32.5,28.2,30.12,NW,323,3.0,7.0,84,0.00,,---,0.13,0.00,VWS V14.01,2013-04-24 04:50:00,
2013-04-23 23:55:00,32.4,28.1,30.12,NW,320,3.0,7.0,84,0.00,,---,0.13,0.00,VWS V14.01,2013-04-24 04:55:00,